QPF
0.00 0.00 0.00 0.00 0.00 0.03 0.01 0.00 0.01 0.03 0.06 0.03 0.03 0.01 0.01 0.02 0.00 0.00 0.01 0.00 0.00 0.00 0.00 0.00 0.00 0.00 0.00 0.00 0.00 0.00 0.00 0.00 0.00 0.00 0.00 0.00 0.00 0.00 0.00 0.00 0.00 0.00 0.00
0.08 0.02 0.00 0.00 0.01 0.05 0.01 0.01 0.00 0.04 0.08 0.06 0.05 0.04 0.04 0.02 0.00 0.00 0.01 0.05 0.03 0.04 0.01 0.00 0.00 0.00 0.00 0.00 0.00 0.00 0.00 0.00 0.00 0.00 0.00 0.00 0.00 0.00 0.00 0.00 0.00 0.00 0.00
0.15 0.13 0.03 0.01 0.02 0.04 0.03 0.01 0.01 0.01 0.05 0.09 0.10 0.02 0.01 0.00 0.00 0.04 0.03 0.03 0.11 0.09 0.07 0.05 0.02 0.00 0.00 0.00 0.00 0.00 0.00 0.00 0.00 0.00 0.00 0.00 0.00 0.00 0.00 0.00 0.00 0.00 0.00
0.08 0.14 0.07 0.01 0.00 0.01 0.01 0.00 0.00 0.01 0.02 0.03 0.03 0.05 0.03 0.02 0.02 0.02 0.01 0.00 0.01 0.09 0.11 0.06 0.03 0.02 0.00 0.00 0.00 0.00 0.00 0.00 0.00 0.00 0.00 0.00 0.00 0.00 0.00 0.00 0.00 0.00 0.00
0.16 0.26 0.26 0.05 0.00 0.00 0.01 0.00 0.00 0.00 0.00 0.01 0.01 0.00 0.00 0.00 0.00 0.00 0.00 0.00 0.01 0.04 0.04 0.01 0.02 0.03 0.02 0.02 0.01 0.01 0.00 0.00 0.00 0.00 0.00 0.00 0.00 0.00 0.00 0.00 0.00 0.00 0.00
0.03 0.12 0.21 0.14 0.03 0.00 0.00 0.01 0.02 0.03 0.04 0.03 0.01 0.02 0.03 0.03 0.04 0.04 0.02 0.00 0.00 0.00 0.00 0.00 0.00 0.01 0.01 0.02 0.02 0.00 0.00 0.00 0.00 0.00 0.00 0.00 0.00 0.00 0.00 0.00 0.00 0.00 0.00
0.01 0.02 0.02 0.02 0.05 0.03 0.01 0.00 0.01 0.02 0.03 0.03 0.02 0.02 0.06 0.07 0.05 0.03 0.04 0.02 0.02 0.02 0.01 0.02 0.01 0.01 0.00 0.00 0.01 0.01 0.00 0.01 0.00 0.00 0.00 0.00 0.00 0.00 0.00 0.00 0.00 0.00 0.00
0.00 0.00 0.00 0.00 0.01 0.08 0.03 0.01 0.01 0.01 0.01 0.03 0.02 0.03 0.11 0.07 0.06 0.03 0.05 0.04 0.04 0.07 0.08 0.06 0.03 0.04 0.05 0.03 0.00 0.00 0.00 0.00 0.00 0.00 0.00 0.00 0.00 0.00 0.00 0.00 0.00 0.00 0.00
0.00 0.00 0.00 0.00 0.00 0.00 0.00 0.00 0.01 0.01 0.01 0.01 0.01 0.01 0.01 0.01 0.02 0.01 0.03 0.03 0.03 0.06 0.11 0.10 0.04 0.02 0.07 0.06 0.01 0.00 0.00 0.00 0.00 0.00 0.00 0.00 0.00 0.00 0.00 0.00 0.00 0.00 0.00
0.00 0.00 0.00 0.00 0.01 0.02 0.02 0.01 0.02 0.01 0.00 0.01 0.01 0.00 0.00 0.00 0.00 0.00 0.00 0.00 0.00 0.02 0.06 0.04 0.04 0.02 0.10 0.11 0.07 0.04 0.01 0.02 0.00 0.01 0.00 0.00 0.00 0.00 0.00 0.00 0.00 0.00 0.00
0.00 0.00 0.00 0.00 0.00 0.00 0.00 0.01 0.03 0.03 0.02 0.02 0.01 0.01 0.00 0.00 0.00 0.00 0.00 0.00 0.00 0.00 0.01 0.03 0.03 0.02 0.05 0.05 0.06 0.04 0.02 0.00 0.00 0.00 0.00 0.00 0.00 0.00 0.00 0.00 0.00 0.00 0.00
0.00 0.00 0.00 0.00 0.00 0.00 0.00 0.00 0.00 0.00 0.00 0.01 0.01 0.00 0.00 0.00 0.00 0.00 0.00 0.00 0.00 0.00 0.01 0.05 0.07 0.07 0.06 0.07 0.07 0.05 0.02 0.00 0.00 0.00 0.00 0.00 0.00 0.00 0.00 0.00 0.00 0.00 0.00
0.00 0.00 0.00 0.00 0.00 0.00 0.00 0.00 0.00 0.00 0.00 0.00 0.00 0.00 0.00 0.00 0.00 0.00 0.00 0.00 0.00 0.00 0.00 0.00 0.00 0.00 0.01 0.01 0.00 0.00 0.00 0.00 0.00 0.00 0.00 0.00 0.00 0.00 0.00 0.00 0.00 0.00 0.00
0.00 0.00 0.00 0.00 0.00 0.00 0.00 0.00 0.00 0.00 0.00 0.00 0.00 0.00 0.00 0.00 0.00 0.00 0.00 0.00 0.00 0.00 0.00 0.00 0.00 0.00 0.00 0.00 0.00 0.00 0.00 0.00 0.00 0.00 0.00 0.00 0.00 0.00 0.00 0.00 0.00 0.01 0.00
0.00 0.00 0.00 0.00 0.00 0.00 0.00 0.00 0.00 0.00 0.00 0.00 0.00 0.00 0.00 0.00 0.00 0.00 0.00 0.00 0.00 0.00 0.00 0.00 0.00 0.00 0.00 0.00 0.00 0.00 0.00 0.00 0.00 0.00 0.00 0.00 0.00 0.00 0.00 0.00 0.00 0.00 0.00
0.00 0.00 0.00 0.00 0.00 0.00 0.00 0.00 0.00 0.00 0.00 0.00 0.00 0.00 0.00 0.00 0.00 0.00 0.00 0.00 0.00 0.00 0.00 0.00 0.00 0.00 0.00 0.00 0.00 0.00 0.00 0.00 0.00 0.00 0.00 0.00 0.00 0.00 0.00 0.00 0.00 0.01 0.01
0.00 0.00 0.00 0.00 0.00 0.00 0.00 0.00 0.00 0.00 0.00 0.00 0.00 0.00 0.00 0.00 0.00 0.00 0.00 0.00 0.00 0.00 0.00 0.00 0.00 0.00 0.00 0.00 0.00 0.00 0.00 0.00 0.00 0.00 0.00 0.00 0.00 0.00 0.00 0.00 0.00 0.01 0.01
0.00 0.00 0.00 0.00 0.00 0.00 0.00 0.00 0.00 0.00 0.00 0.00 0.00 0.00 0.00 0.00 0.00 0.00 0.00 0.00 0.00 0.00 0.00 0.00 0.00 0.00 0.00 0.00 0.00 0.00 0.00 0.00 0.00 0.00 0.00 0.00 0.00 0.00 0.00 0.00 0.00 0.00 0.02
0.00 0.00 0.00 0.00 0.00 0.00 0.00 0.00 0.00 0.00 0.00 0.00 0.00 0.00 0.00 0.00 0.00 0.00 0.00 0.00 0.00 0.00 0.00 0.00 0.00 0.00 0.00 0.00 0.00 0.00 0.00 0.00 0.00 0.00 0.00 0.00 0.00 0.00 0.00 0.00 0.00 0.01 0.00
0.00 0.00 0.00 0.00 0.00 0.00 0.00 0.00 0.00 0.00 0.00 0.00 0.00 0.00 0.00 0.00 0.00 0.00 0.00 0.00 0.00 0.00 0.00 0.00 0.00 0.00 0.00 0.00 0.00 0.00 0.00 0.00 0.00 0.00 0.00 0.00 0.00 0.00 0.00 0.00 0.00 0.00 0.00
0.00 0.00 0.00 0.00 0.00 0.00 0.00 0.00 0.00 0.00 0.00 0.00 0.00 0.00 0.00 0.00 0.00 0.00 0.00 0.00 0.00 0.00 0.00 0.00 0.00 0.00 0.00 0.00 0.01 0.01 0.01 0.01 0.00 0.00 0.00 0.00 0.01 0.00 0.00 0.00 0.00 0.00 0.00
0.00 0.00 0.00 0.00 0.00 0.00 0.00 0.00 0.00 0.00 0.00 0.00 0.00 0.00 0.00 0.00 0.00 0.00 0.00 0.00 0.00 0.00 0.00 0.00 0.00 0.01 0.01 0.01 0.01 0.01 0.00 0.00 0.00 0.00 0.00 0.00 0.00 0.01 0.01 0.00 0.00 0.00 0.00
0.00 0.00 0.00 0.00 0.00 0.00 0.00 0.00 0.00 0.00 0.00 0.00 0.00 0.00 0.00 0.00 0.00 0.00 0.00 0.00 0.00 0.00 0.00 0.00 0.00 0.00 0.00 0.01 0.01 0.01 0.01 0.01 0.01 0.01 0.00 0.00 0.01 0.01 0.01 0.01 0.00 0.00 0.00
0.00 0.00 0.00 0.00 0.00 0.00 0.00 0.00 0.00 0.00 0.00 0.00 0.00 0.00 0.00 0.00 0.00 0.00 0.00 0.00 0.00 0.00 0.00 0.00 0.00 0.00 0.00 0.00 0.00 0.01 0.01 0.01 0.01 0.01 0.01 0.01 0.01 0.01 0.00 0.00 0.00 0.00 0.00
0.00 0.00 0.00 0.00 0.00 0.00 0.00 0.00 0.00 0.00 0.00 0.00 0.00 0.00 0.00 0.00 0.00 0.00 0.00 0.00 0.00 0.00 0.00 0.00 0.00 0.00 0.00 0.00 0.00 0.00 0.01 0.01 0.00 0.00 0.00 0.00 0.00 0.00 0.00 0.00 0.00 0.00 0.00
0.00 0.00 0.00 0.00 0.00 0.00 0.00 0.00 0.00 0.00 0.00 0.00 0.00 0.00 0.00 0.00 0.00 0.00 0.00 0.00 0.00 0.00 0.00 0.00 0.00 0.00 0.00 0.00 0.01 0.00 0.00 0.00 0.00 0.00 0.00 0.00 0.00 0.00 0.00 0.00 0.00 0.00 0.00
MSLP
1019.77 1019.84 1020.04 1020.30 1020.52 1020.80 1020.87 1020.94 1020.89 1020.85 1020.99 1021.23 1021.38 1021.64 1021.69 1021.94 1022.05 1022.41 1022.65 1022.75 1022.88 1023.13 1023.32 1023.44 1023.37 1023.27 1023.17 1023.10 1023.17 1023.17 1023.16 1023.15 1023.04 1022.43 1022.22 1021.63 1021.25 1020.93 1020.31 1019.92 1019.66 1019.23 1018.75
1019.29 1019.78 1019.91 1020.27 1020.48 1020.63 1020.78 1020.80 1020.71 1020.92 1020.81 1020.95 1021.04 1021.30 1021.53 1021.70 1021.79 1022.23 1022.51 1022.74 1022.82 1023.00 1023.10 1023.17 1023.09 1023.09 1023.04 1023.14 1023.12 1023.02 1022.94 1022.88 1022.89 1022.67 1022.31 1021.79 1021.36 1020.80 1020.55 1020.19 1019.64 1019.24 1018.94
1019.48 1019.75 1020.25 1020.62 1020.67 1020.66 1020.77 1020.75 1020.62 1020.65 1020.83 1020.97 1021.35 1021.29 1021.40 1021.56 1021.69 1021.95 1022.25 1022.48 1022.74 1022.68 1022.78 1022.80 1022.72 1022.80 1022.87 1022.89 1023.03 1023.09 1022.95 1022.83 1022.78 1022.71 1022.42 1022.02 1021.50 1020.89 1020.55 1020.11 1019.68 1019.16 1018.76
1019.57 1019.57 1020.65 1021.14 1021.07 1020.87 1020.90 1020.94 1020.96 1020.96 1020.83 1020.81 1020.92 1021.18 1021.44 1021.42 1021.56 1021.72 1021.78 1021.93 1022.08 1022.19 1022.29 1022.42 1022.49 1022.59 1022.55 1022.53 1022.63 1022.68 1022.70 1022.61 1022.52 1022.39 1022.18 1021.82 1021.46 1020.89 1020.79 1020.44 1019.66 1019.21 1018.66
1019.71 1019.99 1020.66 1021.30 1021.24 1021.07 1021.17 1021.16 1021.14 1021.22 1021.31 1021.08 1020.93 1020.98 1021.06 1021.15 1021.17 1021.48 1021.65 1021.67 1021.69 1021.82 1021.72 1021.68 1021.64 1021.61 1022.01 1022.00 1022.18 1021.95 1022.17 1022.05 1022.04 1022.02 1021.71 1021.49 1021.08 1020.70 1020.56 1020.29 1020.03 1019.46 1018.69
1019.69 1019.97 1020.13 1020.62 1021.20 1021.30 1021.35 1021.62 1021.49 1021.45 1021.54 1021.51 1021.55 1021.32 1021.18 1021.27 1021.21 1021.55 1021.63 1021.68 1021.44 1021.40 1021.41 1021.26 1021.08 1021.04 1020.89 1021.19 1021.41 1021.27 1021.48 1021.68 1021.61 1021.66 1021.33 1021.03 1020.73 1020.49 1020.25 1020.13 1019.92 1019.54 1018.77
1020.36 1020.65 1020.86 1021.17 1021.48 1021.77 1021.81 1022.15 1022.16 1021.90 1021.72 1021.79 1021.73 1021.91 1021.88 1021.93 1021.76 1021.73 1021.43 1021.38 1021.46 1021.21 1021.17 1021.20 1021.01 1020.75 1020.53 1020.72 1020.61 1020.88 1020.97 1020.98 1021.10 1020.91 1020.69 1020.36 1020.12 1019.83 1019.81 1019.71 1019.64 1019.41 1018.94
1021.27 1021.61 1021.46 1021.61 1021.77 1021.93 1022.03 1022.52 1022.68 1022.55 1022.51 1021.95 1021.97 1022.09 1022.45 1022.53 1022.08 1021.84 1021.56 1021.48 1021.49 1021.51 1021.38 1021.32 1021.29 1021.16 1021.25 1021.35 1021.03 1020.74 1020.63 1020.50 1020.30 1020.28 1019.99 1019.53 1019.31 1019.11 1019.33 1019.31 1019.20 1018.99 1018.45
1022.25 1022.59 1022.69 1022.57 1022.63 1022.56 1022.25 1022.48 1022.53 1022.87 1022.82 1022.26 1022.17 1022.22 1022.67 1023.21 1022.81 1022.25 1021.82 1021.79 1021.86 1021.86 1021.70 1021.33 1021.43 1021.67 1022.05 1021.75 1021.34 1020.88 1020.32 1019.78 1019.38 1019.58 1019.46 1019.30 1019.14 1018.98 1018.95 1019.09 1018.67 1018.61 1017.68
1023.48 1023.44 1023.47 1023.31 1023.29 1023.26 1023.22 1023.19 1023.37 1023.08 1022.99 1022.80 1022.38 1022.94 1023.28 1023.58 1023.55 1022.96 1022.52 1022.68 1022.49 1022.45 1022.30 1022.11 1021.99 1022.26 1022.29 1022.11 1022.00 1021.34 1020.76 1020.21 1019.65 1019.11 1018.92 1018.59 1018.55 1018.18 1018.28 1018.27 1017.97 1017.81 1017.41
1024.43 1024.48 1024.21 1024.15 1024.05 1024.13 1023.93 1023.94 1023.88 1023.64 1023.90 1023.57 1023.56 1023.57 1023.78 1024.19 1024.33 1023.93 1023.79 1023.62 1023.59 1023.20 1022.96 1022.61 1022.36 1022.39 1022.31 1021.88 1021.95 1021.75 1021.20 1020.78 1020.02 1019.48 1018.95 1018.47 1017.98 1017.60 1017.18 1017.06 1016.98 1017.03 1016.65
1024.94 1024.88 1024.95 1024.94 1024.96 1025.05 1024.74 1024.75 1024.64 1024.51 1024.33 1024.14 1023.95 1024.24 1024.59 1024.64 1024.50 1024.35 1024.15 1024.40 1024.08 1023.74 1023.56 1023.29 1022.95 1022.94 1022.61 1021.99 1021.63 1021.26 1021.11 1020.62 1020.03 1019.42 1018.84 1018.28 1017.75 1017.18 1016.72 1016.42 1016.20 1016.06 1015.73
1025.44 1025.54 1025.60 1025.53 1025.49 1025.54 1025.51 1025.55 1025.38 1025.43 1025.29 1025.37 1025.18 1025.28 1025.23 1025.00 1024.95 1025.23 1024.94 1024.53 1024.45 1024.52 1024.30 1023.82 1023.35 1022.86 1022.36 1021.74 1021.34 1021.21 1020.91 1020.39 1019.80 1019.34 1018.83 1018.25 1017.83 1017.22 1016.51 1016.11 1015.70 1015.42 1014.94
1025.80 1026.09 1026.14 1026.03 1026.08 1026.21 1026.13 1026.01 1025.86 1026.22 1026.30 1026.31 1026.37 1026.25 1026.14 1025.91 1025.94 1025.55 1025.23 1024.78 1024.47 1024.46 1024.48 1023.78 1023.04 1022.59 1022.02 1021.75 1021.54 1021.16 1020.97 1020.48 1019.88 1019.53 1019.03 1018.54 1017.91 1017.26 1016.79 1016.31 1015.70 1015.25 1014.69
1026.16 1026.40 1026.58 1026.59 1026.66 1026.79 1026.83 1026.86 1026.94 1027.11 1026.94 1026.91 1027.14 1027.03 1026.79 1026.87 1027.14 1027.20 1026.61 1026.28 1025.64 1025.20 1024.78 1023.64 1023.17 1022.66 1022.12 1021.53 1021.24 1020.94 1020.81 1020.65 1020.50 1020.28 1019.87 1019.38 1018.86 1018.29 1017.89 1017.27 1016.46 1015.57 1014.90
1026.62 1026.89 1026.99 1027.00 1027.19 1027.23 1027.24 1027.47 1027.52 1027.36 1027.45 1027.76 1027.95 1027.75 1027.56 1027.72 1027.57 1027.21 1026.88 1026.36 1025.41 1025.20 1024.60 1023.96 1023.53 1023.11 1022.63 1021.99 1021.34 1020.83 1020.74 1020.77 1020.77 1020.60 1020.42 1020.03 1019.46 1018.96 1018.48 1017.94 1017.36 1016.36 1015.33
1026.85 1026.97 1027.12 1027.31 1027.39 1027.42 1027.55 1027.64 1027.73 1027.84 1027.86 1028.18 1028.23 1028.09 1028.16 1028.09 1027.65 1027.19 1026.84 1026.35 1025.71 1025.48 1024.98 1024.42 1024.03 1023.37 1022.72 1022.06 1021.61 1021.65 1021.25 1021.25 1021.16 1020.79 1020.78 1020.41 1019.74 1019.25 1018.82 1018.25 1017.68 1017.08 1016.11
1027.17 1027.52 1027.64 1027.76 1027.86 1028.01 1028.09 1028.17 1028.19 1028.30 1028.40 1028.43 1028.37 1028.48 1028.48 1028.27 1027.90 1027.61 1026.98 1026.10 1025.61 1025.22 1025.18 1024.86 1024.28 1023.90 1023.22 1022.72 1022.36 1022.09 1021.84 1021.42 1021.12 1020.85 1020.71 1020.53 1020.11 1019.48 1019.00 1018.50 1017.97 1017.43 1016.65
1027.37 1027.73 1027.93 1028.08 1028.22 1028.28 1028.40 1028.46 1028.58 1028.68 1028.76 1028.75 1028.62 1028.45 1028.38 1028.25 1027.93 1027.65 1027.17 1026.71 1026.40 1026.02 1025.65 1025.32 1024.94 1024.55 1024.26 1023.80 1023.24 1022.54 1022.00 1021.67 1021.45 1021.02 1020.68 1020.58 1020.33 1019.82 1019.20 1018.72 1018.09 1017.55 1016.97
1027.34 1027.60 1027.96 1028.26 1028.48 1028.66 1028.79 1028.84 1028.95 1028.95 1028.92 1028.87 1028.78 1028.76 1028.59 1028.24 1027.86 1027.70 1027.48 1027.34 1027.09 1026.87 1026.45 1026.09 1025.65 1025.20 1024.57 1024.03 1023.52 1023.06 1022.23 1021.68 1021.32 1021.01 1020.72 1020.43 1020.11 1019.77 1019.18 1018.63 1018.17 1017.55 1016.78
1027.07 1027.43 1027.68 1028.06 1028.28 1028.52 1028.62 1028.69 1028.86 1028.87 1028.83 1028.79 1028.79 1028.78 1028.72 1028.44 1028.18 1028.05 1027.88 1027.56 1027.35 1027.13 1026.83 1026.42 1026.00 1025.37 1024.76 1024.11 1023.56 1022.88 1022.05 1021.55 1021.17 1020.84 1020.67 1020.46 1020.14 1019.57 1019.15 1018.60 1018.00 1017.43 1016.76
1026.64 1027.06 1027.42 1027.64 1027.94 1028.16 1028.27 1028.35 1028.43 1028.47 1028.48 1028.45 1028.44 1028.42 1028.46 1028.32 1028.15 1027.94 1027.68 1027.43 1027.21 1026.92 1026.51 1026.28 1025.87 1025.29 1024.71 1024.18 1023.55 1022.91 1022.17 1021.54 1021.03 1020.53 1020.14 1019.94 1019.72 1019.34 1018.67 1018.07 1017.45 1016.90 1016.32
1026.11 1026.50 1026.92 1027.29 1027.56 1027.68 1027.80 1027.95 1028.05 1028.09 1028.04 1028.04 1028.06 1028.02 1027.99 1027.94 1027.80 1027.59 1027.42 1027.23 1027.03 1026.76 1026.44 1026.07 1025.39 1024.69 1024.20 1023.80 1023.39 1022.93 1022.34 1021.74 1021.07 1020.45 1019.83 1019.41 1018.96 1018.48 1018.12 1017.49 1016.96 1016.34 1015.82
1025.47 1025.88 1026.35 1026.78 1027.11 1027.33 1027.52 1027.61 1027.70 1027.78 1027.78 1027.76 1027.76 1027.71 1027.63 1027.52 1027.41 1027.27 1027.08 1026.82 1026.57 1026.24 1025.86 1025.48 1024.99 1024.51 1023.85 1023.30 1022.73 1022.22 1021.66 1021.04 1020.43 1019.91 1019.54 1018.74 1018.06 1017.66 1017.30 1016.67 1016.02 1015.52 1015.00
1024.82 1025.16 1025.66 1026.10 1026.47 1026.67 1026.99 1027.16 1027.29 1027.37 1027.41 1027.49 1027.46 1027.47 1027.44 1027.31 1027.08 1026.77 1026.40 1026.19 1026.01 1025.78 1025.42 1025.04 1024.65 1024.07 1023.38 1022.75 1022.13 1021.49 1020.94 1020.63 1020.28 1019.72 1019.04 1018.24 1017.48 1016.94 1016.37 1015.74 1015.16 1014.51 1013.97
1023.91 1024.53 1025.05 1025.47 1025.79 1026.09 1026.39 1026.52 1026.67 1026.79 1026.84 1026.89 1026.94 1026.90 1026.83 1026.74 1026.56 1026.29 1026.04 1025.83 1025.54 1025.35 1024.91 1024.37 1024.02 1023.58 1022.87 1022.04 1021.35 1020.89 1020.45 1019.88 1019.26 1018.66 1018.06 1017.28 1016.48 1015.72 1015.15 1014.42 1013.78 1013.15 1012.42
Thickness
5750 5754 5755 5756 5757 5757 5759 5760 5761 5762 5762 5760 5760 5760 5762 5761 5761 5760 5759 5761 5762 5761 5760 5760 5761 5764 5766 5767 5766 5766 5766 5764 5761 5770 5774 5779 5782 5785 5788 5790 5790 5792 5795
5750 5751 5752 5752 5753 5753 5755 5757 5758 5759 5761 5763 5762 5761 5760 5760 5760 5759 5758 5759 5760 5759 5759 5760 5762 5765 5765 5765 5766 5766 5767 5768 5766 5762 5769 5775 5778 5782 5784 5786 5788 5789 5792
5744 5744 5742 5743 5746 5749 5749 5752 5755 5757 5758 5759 5758 5760 5760 5759 5759 5759 5759 5758 5757 5759 5760 5761 5762 5763 5763 5765 5765 5765 5767 5768 5767 5765 5766 5772 5775 5780 5782 5784 5786 5789 5791
5736 5740 5731 5730 5737 5742 5744 5746 5747 5750 5753 5756 5758 5759 5758 5759 5759 5760 5761 5761 5761 5762 5762 5760 5759 5759 5762 5763 5764 5765 5766 5767 5767 5766 5766 5769 5772 5779 5778 5777 5782 5788 5789
5727 5730 5726 5723 5728 5735 5736 5738 5741 5743 5745 5750 5753 5755 5757 5757 5758 5758 5760 5762 5762 5761 5762 5763 5764 5765 5763 5764 5765 5767 5767 5768 5767 5766 5767 5768 5770 5774 5774 5777 5776 5779 5784
5721 5723 5724 5721 5721 5724 5728 5728 5732 5736 5738 5741 5743 5747 5750 5751 5753 5753 5755 5758 5762 5762 5761 5763 5764 5764 5767 5767 5767 5768 5769 5767 5767 5765 5766 5766 5769 5772 5775 5774 5773 5772 5772
5711 5709 5712 5712 5710 5713 5717 5716 5717 5723 5728 5731 5735 5735 5739 5741 5744 5748 5751 5752 5754 5758 5760 5759 5761 5764 5764 5767 5768 5769 5769 5768 5768 5769 5768 5769 5770 5773 5774 5773 5772 5771 5773
5700 5698 5703 5703 5702 5702 5706 5705 5706 5710 5712 5720 5725 5725 5726 5729 5733 5740 5744 5747 5748 5750 5752 5754 5755 5757 5758 5759 5764 5767 5768 5768 5768 5769 5771 5774 5776 5776 5774 5775 5774 5775 5779
5690 5688 5689 5691 5691 5694 5698 5697 5699 5698 5701 5709 5713 5717 5716 5713 5721 5730 5736 5740 5740 5741 5744 5747 5749 5748 5746 5749 5755 5758 5761 5764 5767 5769 5772 5774 5774 5774 5773 5772 5772 5771 5777
5674 5676 5679 5683 5685 5686 5689 5689 5686 5689 5691 5694 5704 5704 5704 5705 5708 5715 5719 5722 5726 5728 5732 5735 5738 5738 5737 5739 5742 5748 5751 5754 5759 5764 5767 5770 5771 5771 5771 5769 5772 5769 5772
5663 5664 5668 5670 5674 5674 5677 5679 5678 5680 5678 5680 5685 5689 5690 5693 5694 5698 5701 5705 5708 5712 5716 5719 5724 5726 5728 5733 5733 5735 5742 5746 5749 5753 5757 5761 5765 5768 5769 5769 5770 5770 5771
5653 5655 5656 5658 5660 5660 5664 5666 5669 5670 5671 5672 5675 5675 5674 5678 5681 5686 5690 5689 5691 5697 5701 5705 5708 5711 5716 5722 5725 5727 5730 5734 5741 5745 5750 5753 5757 5761 5765 5766 5766 5768 5770
5639 5641 5643 5646 5649 5650 5652 5652 5655 5656 5660 5660 5662 5660 5662 5667 5669 5669 5674 5680 5681 5681 5683 5689 5696 5701 5706 5710 5715 5718 5722 5728 5732 5735 5739 5743 5747 5751 5755 5758 5761 5763 5768
5626 5626 5628 5632 5634 5635 5638 5640 5643 5640 5641 5644 5645 5648 5649 5652 5652 5658 5662 5667 5670 5671 5673 5679 5686 5691 5697 5699 5702 5705 5708 5714 5720 5723 5728 5732 5737 5740 5744 5749 5752 5754 5759
5613 5614 5615 5617 5618 5619 5620 5622 5623 5623 5627 5628 5626 5630 5635 5637 5636 5635 5642 5645 5652 5657 5661 5670 5673 5679 5684 5689 5692 5694 5696 5698 5700 5703 5707 5712 5716 5720 5723 5729 5736 5742 5746
5597 5598 5599 5600 5601 5603 5604 5604 5604 5607 5609 5609 5609 5612 5614 5615 5619 5623 5628 5632 5642 5645 5650 5656 5659 5661 5665 5672 5678 5682 5683 5683 5683 5686 5687 5692 5697 5701 5706 5711 5716 5723 5732
5581 5582 5582 5582 5584 5587 5587 5588 5589 5589 5590 5589 5591 5594 5595 5599 5602 5607 5612 5617 5623 5627 5631 5635 5639 5645 5650 5656 5660 5660 5665 5664 5665 5670 5670 5673 5680 5685 5689 5695 5700 5704 5713
5564 5563 5564 5564 5565 5565 5566 5567 5567 5568 5569 5571 5572 5573 5575 5578 5583 5586 5593 5598 5602 5606 5609 5613 5619 5622 5628 5633 5636 5638 5641 5647 5650 5653 5654 5656 5661 5667 5672 5677 5682 5687 5694
5548 5547 5547 5548 5548 5549 5549 5550 5550 5549 5549 5550 5554 5558 5559 5561 5565 5567 5571 5576 5579 5582 5585 5588 5592 5595 5598 5602 5608 5615 5620 5624 5627 5633 5636 5637 5640 5645 5652 5657 5664 5667 5673
5533 5533 5532 5531 5531 5531 5532 5532 5532 5532 5533 5534 5536 5537 5538 5543 5547 5549 5551 5552 5553 5556 5559 5562 5565 5568 5574 5579 5583 5587 5597 5603 5608 5612 5616 5618 5621 5624 5631 5638 5643 5649 5658
5521 5520 5519 5517 5516 5516 5516 5516 5516 5516 5517 5518 5518 5519 5520 5522 5524 5525 5527 5529 5531 5533 5535 5539 5543 5547 5551 5556 5560 5566 5574 5580 5585 5589 5591 5594 5597 5603 5607 5614 5622 5629 5636
5509 5506 5504 5504 5503 5503 5502 5503 5503 5504 5504 5504 5504 5504 5503 5504 5505 5506 5507 5508 5508 5510 5513 5516 5519 5523 5527 5531 5535 5541 5548 5554 5560 5565 5569 5571 5574 5578 5585 5592 5600 5608 5616
5497 5495 5493 5491 5490 5490 5490 5489 5488 5489 5489 5489 5489 5489 5488 5487 5487 5487 5487 5487 5488 5489 5490 5492 5496 5501 5504 5506 5508 5511 5516 5522 5528 5534 5542 5548 5553 5558 5562 5569 5576 5583 5590
5485 5484 5481 5479 5477 5475 5475 5474 5474 5473 5472 5472 5472 5471 5470 5470 5468 5467 5466 5465 5466 5467 5468 5469 5471 5472 5476 5478 5482 5485 5490 5496 5501 5507 5510 5520 5530 5535 5539 5546 5554 5561 5567
5473 5472 5470 5467 5465 5464 5462 5462 5461 5460 5459 5457 5456 5454 5453 5452 5450 5449 5447 5445 5444 5443 5443 5441 5440 5442 5444 5447 5451 5455 5459 5463 5467 5472 5479 5489 5500 5509 5515 5522 5529 5536 5543
5464 5460 5458 5457 5455 5453 5451 5450 5450 5448 5446 5445 5443 5440 5438 5436 5433 5431 5426 5424 5424 5420 5416 5413 5410 5409 5411 5414 5416 5417 5421 5428 5434 5440 5446 5457 5469 5479 5486 5495 5504 5512 5524